,,,PA_Meas_PMT16A,,PR_Meas_QMR101_102,,RH_Meas_QMH101,,SR_Meas_QMS101,,TA_Meas_QMH101,,GenWind,,GenWind,
date,time,status,PA,status,PR,status,RH,status,SR,status,TA,status,DirAvg,status,SpdAvg,
2008-06-27, 06:25:04,VALID,1005.94,VALID,0,VALID,94.4227,VALID,32.3813,VALID,23.3727,VALID,268,VALID,0.34375,
2008-06-27, 06:26:04,VALID,1006,VALID,0,VALID,94.4379,VALID,33.588,VALID,23.3532,VALID,310,VALID,0.520703,
2008-06-27, 06:27:04,VALID,1005.95,VALID,0.5,VALID,94.4837,VALID,34.9959,VALID,23.3532,VALID,2,VALID,0.583984,
2008-06-27, 06:28:04,VALID,1005.97,VALID,0,VALID,94.4227,VALID,36.4038,VALID,23.332,VALID,4,VALID,0.877734,
2008-06-27, 06:29:04,VALID,1005.98,VALID,0,VALID,94.5295,VALID,37.7111,VALID,23.3532,VALID,350,VALID,0.0347656,
2008-06-27, 06:30:04,VALID,1006,VALID,0,VALID,94.5447,VALID,39.119,VALID,23.3337,VALID,350,VALID,0.340625,
2008-06-27, 06:31:04,VALID,1006.03,VALID,0,VALID,94.5523,VALID,40.5269,VALID,23.3337,VALID,35,VALID,0.421875,
2008-06-27, 06:32:04,VALID,1006.05,VALID,0,VALID,94.5676,VALID,42.1359,VALID,23.3143,VALID,34,VALID,0.0636719,
2008-06-27, 06:33:04,VALID,1006.09,VALID,0,VALID,94.5523,VALID,43.8454,VALID,23.3337,VALID,30,VALID,0.46875,
2008-06-27, 06:34:04,VALID,1006.09,VALID,0,VALID,94.6057,VALID,45.555,VALID,23.3355,VALID,29,VALID,0.230469,
2008-06-27, 06:35:04,VALID,1006.1,VALID,0,VALID,94.6134,VALID,47.2646,VALID,23.2931,VALID,357,VALID,0.479297,
2008-06-27, 06:36:04,VALID,1006.14,VALID,0,VALID,94.4837,VALID,48.8736,VALID,23.3143,VALID,8,VALID,0.305078,
2008-06-27, 06:37:04,VALID,1006.16,VALID,0,VALID,94.4532,VALID,50.382,VALID,23.3125,VALID,31,VALID,0.7,
2008-06-27, 06:38:04,VALID,1006.16,VALID,0,VALID,94.3692,VALID,51.991,VALID,23.3337,VALID,33,VALID,0.422266,
2008-06-27, 06:39:04,VALID,1006.17,VALID,0,VALID,94.4227,VALID,53.4995,VALID,23.3744,VALID,32,VALID,0.0925781,
2008-06-27, 06:40:04,VALID,1006.19,VALID,0,VALID,94.3921,VALID,55.1085,VALID,23.4134,VALID,33,VALID,0.152734,
2008-06-27, 06:41:04,VALID,1006.18,VALID,0,VALID,94.2777,VALID,56.7175,VALID,23.4134,VALID,174,VALID,0.825391,
2008-06-27, 06:42:04,VALID,1006.21,VALID,0,VALID,94.0794,VALID,58.3265,VALID,23.4541,VALID,174,VALID,0.834766,
2008-06-27, 06:43:04,VALID,1006.19,VALID,0,VALID,93.9649,VALID,59.6338,VALID,23.5125,VALID,185,VALID,0.912109,
2008-06-27, 06:44:04,VALID,1006.23,VALID,0,VALID,93.8581,VALID,61.1423,VALID,23.5709,VALID,164,VALID,1.11172,
2008-06-27, 06:45:04,VALID,1006.26,VALID,0,VALID,93.8352,VALID,62.2485,VALID,23.5496,VALID,182,VALID,1.04336,
2008-06-27, 06:46:04,VALID,1006.26,VALID,0,VALID,93.9268,VALID,63.3547,VALID,23.5691,VALID,165,VALID,0.713281,
2008-06-27, 06:47:04,VALID,1006.29,VALID,0,VALID,94.0794,VALID,64.4608,VALID,23.5691,VALID,164,VALID,0.906641,
2008-06-27, 06:48:04,VALID,1006.32,VALID,0,VALID,93.7589,VALID,65.1648,VALID,23.5691,VALID,169,VALID,1.29375,
2008-06-27, 06:49:04,VALID,1006.31,VALID,0,VALID,92.8587,VALID,65.7682,VALID,23.5302,VALID,185,VALID,1.425,
2008-06-27, 06:50:04,VALID,1006.36,VALID,0,VALID,92.6451,VALID,66.4721,VALID,23.608,VALID,195,VALID,1.42578,
2008-06-27, 06:51:04,VALID,1006.37,VALID,0,VALID,91.7144,VALID,67.176,VALID,23.7053,VALID,187,VALID,0.657812,
2008-06-27, 06:52:04,VALID,1006.43,VALID,0,VALID,91.989,VALID,67.88,VALID,23.8239,VALID,93,VALID,0.695313,
2008-06-27, 06:53:04,VALID,1006.43,VALID,0,VALID,91.8822,VALID,68.4834,VALID,23.8027,VALID,93,VALID,0.191797,
2008-06-27, 06:54:04,VALID,1006.47,VALID,0,VALID,92.1416,VALID,69.1873,VALID,23.8027,VALID,118,VALID,0.639844,
2008-06-27, 06:55:04,VALID,1006.49,VALID,0,VALID,92.0653,VALID,69.6901,VALID,23.8203,VALID,167,VALID,0.999219,
2008-06-27, 06:56:04,VALID,1006.52,VALID,0,VALID,92.0958,VALID,70.2935,VALID,23.8009,VALID,167,VALID,0.327344,
2008-06-27, 06:57:04,VALID,1006.55,VALID,0,VALID,92.3018,VALID,70.8969,VALID,23.8027,VALID,151,VALID,1.06289,
2008-06-27, 06:58:04,VALID,1006.54,VALID,0,VALID,92.5002,VALID,71.5003,VALID,23.7832,VALID,145,VALID,0.794531,
2008-06-27, 06:59:04,VALID,1006.55,VALID,0,VALID,92.7596,VALID,72.3048,VALID,23.7619,VALID,154,VALID,0.926172,
2008-06-27, 07:00:04,VALID,1006.51,VALID,0,VALID,93.1486,VALID,73.2098,VALID,23.7832,VALID,140,VALID,0.935938,
2008-06-27, 07:01:04,VALID,1006.55,VALID,0,VALID,93.2783,VALID,74.2155,VALID,23.7619,VALID,141,VALID,0.769531,
2008-06-27, 07:02:04,VALID,1006.53,VALID,0,VALID,93.408,VALID,75.02,VALID,23.7619,VALID,128,VALID,0.851563,
2008-06-27, 07:03:04,VALID,1006.56,VALID,0,VALID,93.141,VALID,75.925,VALID,23.723,VALID,113,VALID,0.988281,
2008-06-27, 07:04:04,VALID,1006.53,VALID,0,VALID,93.4538,VALID,77.1318,VALID,23.7425,VALID,132,VALID,0.833594,
2008-06-27, 07:05:04,VALID,1006.55,VALID,0,VALID,93.3851,VALID,78.4391,VALID,23.7443,VALID,121,VALID,0.633984,
2008-06-27, 07:06:04,VALID,1006.53,VALID,0,VALID,93.5377,VALID,79.7464,VALID,23.7425,VALID,119,VALID,0.435547,
2008-06-27, 07:07:04,VALID,1006.54,VALID,0,VALID,93.7742,VALID,80.9532,VALID,23.7814,VALID,69,VALID,0.339453,
2008-06-27, 07:08:04,VALID,1006.51,VALID,0,VALID,93.6826,VALID,82.0594,VALID,23.8203,VALID,21,VALID,0.792188,
2008-06-27, 07:09:04,VALID,1006.5,VALID,0,VALID,92.9808,VALID,82.8639,VALID,23.7814,VALID,354,VALID,0.639063,
2008-06-27, 07:10:04,VALID,1006.5,VALID,0,VALID,92.9426,VALID,83.7689,VALID,23.8009,VALID,357,VALID,0.371094,
2008-06-27, 07:11:04,VALID,1006.52,VALID,0,VALID,93.0342,VALID,84.674,VALID,23.8416,VALID,38,VALID,0.465234,
2008-06-27, 07:12:04,VALID,1006.52,VALID,0,VALID,93.0571,VALID,85.7802,VALID,23.8805,VALID,38,VALID,0.181641,
2008-06-27, 07:13:04,VALID,1006.53,VALID,0,VALID,93.1257,VALID,86.4841,VALID,23.8575,VALID,38,VALID,0.233984,
2008-06-27, 07:14:04,VALID,1006.52,VALID,0,VALID,93.1715,VALID,86.8864,VALID,23.8982,VALID,39,VALID,0,
2008-06-27, 07:15:04,VALID,1006.55,VALID,0,VALID,93.0952,VALID,86.6853,VALID,23.9389,VALID,68,VALID,0.650781,
2008-06-27, 07:16:04,VALID,1006.54,VALID,0,VALID,93.1181,VALID,86.1824,VALID,23.9195,VALID,77,VALID,0.275781,
2008-06-27, 07:17:04,VALID,1006.53,VALID,0,VALID,93.1715,VALID,85.6796,VALID,23.9177,VALID,77,VALID,0.279687,
2008-06-27, 07:18:04,VALID,1006.54,VALID,0,VALID,92.9655,VALID,85.1768,VALID,23.9195,VALID,120,VALID,0.712891,
2008-06-27, 07:19:04,VALID,1006.54,VALID,0,VALID,92.9426,VALID,84.9757,VALID,23.8982,VALID,103,VALID,0.625781,
2008-06-27, 07:20:04,VALID,1006.57,VALID,0,VALID,92.8511,VALID,84.8751,VALID,23.9195,VALID,104,VALID,0.554688,
2008-06-27, 07:21:04,VALID,1006.59,VALID,0,VALID,92.7748,VALID,84.7746,VALID,23.9389,VALID,123,VALID,0.919141,
2008-06-27, 07:22:04,VALID,1006.62,VALID,0,VALID,92.7748,VALID,84.8751,VALID,23.9566,VALID,109,VALID,0.901563,
2008-06-27, 07:23:04,VALID,1006.63,VALID,0,VALID,92.2866,VALID,85.1768,VALID,23.9779,VALID,112,VALID,1.21133,
2008-06-27, 07:24:04,VALID,1006.68,VALID,0,VALID,91.928,VALID,85.5791,VALID,23.9761,VALID,116,VALID,1.18398,
2008-06-27, 07:25:04,VALID,1006.67,VALID,0,VALID,91.8594,VALID,85.6796,VALID,23.9566,VALID,104,VALID,1.32656,
2008-06-27, 07:26:04,VALID,1006.71,VALID,0,VALID,91.7297,VALID,85.7802,VALID,23.9566,VALID,102,VALID,1.7168,
2008-06-27, 07:27:04,VALID,1006.75,VALID,0,VALID,91.9662,VALID,85.4785,VALID,23.9566,VALID,115,VALID,0.967188,
2008-06-27, 07:28:04,VALID,1006.74,VALID,0,VALID,91.8212,VALID,85.2774,VALID,23.9584,VALID,121,VALID,1.79688,
2008-06-27, 07:29:04,VALID,1006.76,VALID,0,VALID,91.989,VALID,84.7746,VALID,23.9371,VALID,123,VALID,1.53711,
2008-06-27, 07:30:04,VALID,1006.76,VALID,0,VALID,92.0043,VALID,84.2718,VALID,23.9371,VALID,108,VALID,1.27891,
2008-06-27, 07:31:04,VALID,1006.8,VALID,0,VALID,92.1416,VALID,83.3667,VALID,23.9371,VALID,117,VALID,1.5418,
2008-06-27, 07:32:04,VALID,1006.81,VALID,0,VALID,92.0806,VALID,82.3611,VALID,23.9371,VALID,118,VALID,1.83203,
2008-06-27, 07:33:04,VALID,1006.83,VALID,0,VALID,92.073,VALID,81.3554,VALID,23.9566,VALID,113,VALID,1.54336,
2008-06-27, 07:34:04,VALID,1006.86,VALID,0,VALID,92.4468,VALID,80.0481,VALID,23.9779,VALID,134,VALID,0.946875,
2008-06-27, 07:35:04,VALID,1006.87,VALID,0,VALID,92.3323,VALID,78.7408,VALID,23.9973,VALID,131,VALID,1.01523,
2008-06-27, 07:36:04,VALID,1006.87,VALID,0,VALID,92.5688,VALID,77.4335,VALID,24.0168,VALID,143,VALID,0.867188,
2008-06-27, 07:37:04,VALID,1006.89,VALID,0,VALID,92.3934,VALID,76.1262,VALID,24.0168,VALID,133,VALID,1.29414,
2008-06-27, 07:38:04,VALID,1006.9,VALID,0,VALID,92.3705,VALID,74.8188,VALID,23.9973,VALID,155,VALID,1.06758,
2008-06-27, 07:39:04,VALID,1006.91,VALID,0,VALID,92.729,VALID,74.1149,VALID,24.0363,VALID,143,VALID,0.601172,
2008-06-27, 07:40:04,VALID,1006.93,VALID,0,VALID,92.3781,VALID,73.5115,VALID,24.0363,VALID,130,VALID,0.545703,
2008-06-27, 07:41:04,VALID,1006.94,VALID,0,VALID,92.5307,VALID,73.2098,VALID,24.0557,VALID,130,VALID,0.436328,
2008-06-27, 07:42:04,VALID,1006.92,VALID,0,VALID,92.5841,VALID,73.2098,VALID,24.0557,VALID,130,VALID,0.277734,
2008-06-27, 07:43:04,VALID,1006.95,VALID,0,VALID,92.3705,VALID,73.6121,VALID,24.0752,VALID,108,VALID,0.450781,
2008-06-27, 07:44:04,VALID,1006.93,VALID,0,VALID,92.7214,VALID,74.4166,VALID,24.0947,VALID,106,VALID,0.204688,
2008-06-27, 07:45:04,VALID,1006.92,VALID,0,VALID,92.4468,VALID,75.5228,VALID,24.1142,VALID,99,VALID,0.265625,
2008-06-27, 07:46:04,VALID,1006.91,VALID,0,VALID,92.4697,VALID,76.9307,VALID,24.1123,VALID,99,VALID,0.0371094,
2008-06-27, 07:47:04,VALID,1006.89,VALID,0,VALID,92.2484,VALID,78.7408,VALID,24.1142,VALID,116,VALID,0.480078,
2008-06-27, 07:48:04,VALID,1006.93,VALID,0,VALID,92.195,VALID,80.9532,VALID,24.1142,VALID,147,VALID,0.560547,
2008-06-27, 07:49:04,VALID,1006.9,VALID,0,VALID,92.0196,VALID,83.4672,VALID,24.1142,VALID,144,VALID,0.738672,
2008-06-27, 07:50:04,VALID,1006.88,VALID,0,VALID,92.1874,VALID,86.283,VALID,24.1336,VALID,139,VALID,0.794922,
2008-06-27, 07:51:04,VALID,1006.89,VALID,0,VALID,91.8746,VALID,89.1993,VALID,24.1142,VALID,133,VALID,1.01602,
2008-06-27, 07:52:04,VALID,1006.88,VALID,0,VALID,91.8594,VALID,92.0151,VALID,24.1123,VALID,136,VALID,0.868359,
2008-06-27, 07:53:04,VALID,1006.86,VALID,0,VALID,91.5618,VALID,94.7303,VALID,24.1336,VALID,127,VALID,1.02773,
2008-06-27, 07:54:04,VALID,1006.86,VALID,0,VALID,91.8822,VALID,96.8421,VALID,24.1726,VALID,123,VALID,0.679297,
2008-06-27, 07:55:04,VALID,1006.86,VALID,0,VALID,91.7373,VALID,98.3506,VALID,24.1513,VALID,138,VALID,0.932031,
2008-06-27, 07:56:04,VALID,1006.83,VALID,0,VALID,92.1187,VALID,99.2556,VALID,24.1902,VALID,126,VALID,0.826563,
2008-06-27, 07:57:04,VALID,1006.88,VALID,0,VALID,91.7754,VALID,99.6579,VALID,24.192,VALID,94,VALID,0.933984,
2008-06-27, 07:58:04,VALID,1006.89,VALID,0,VALID,91.9967,VALID,99.7584,VALID,24.192,VALID,93,VALID,0.76875,
2008-06-27, 07:59:04,VALID,1006.91,VALID,0,VALID,91.3711,VALID,99.5573,VALID,24.1513,VALID,107,VALID,1.18555,
2008-06-27, 08:00:04,VALID,1006.91,VALID,0,VALID,91.2948,VALID,98.9539,VALID,24.1726,VALID,97,VALID,1.13984,
2008-06-27, 08:01:04,VALID,1006.91,VALID,0,VALID,91.3635,VALID,98.1494,VALID,24.192,VALID,95,VALID,0.9125,
2008-06-27, 08:02:04,VALID,1006.96,VALID,0,VALID,91.5923,VALID,97.4455,VALID,24.1726,VALID,105,VALID,0.618359,
2008-06-27, 08:03:04,VALID,1006.95,VALID,0,VALID,91.9128,VALID,96.641,VALID,24.192,VALID,85,VALID,0.762109,
2008-06-27, 08:04:04,VALID,1006.93,VALID,0,VALID,91.9051,VALID,95.6354,VALID,24.2115,VALID,80,VALID,0.994531,
2008-06-27, 08:05:04,VALID,1006.94,VALID,0,VALID,91.7449,VALID,95.1325,VALID,24.1726,VALID,92,VALID,1.23633,
2008-06-27, 08:06:04,VALID,1006.98,VALID,0,VALID,92.0272,VALID,94.2275,VALID,24.1939,VALID,90,VALID,0.943359,
2008-06-27, 08:07:04,VALID,1006.99,VALID,0,VALID,92.2179,VALID,93.5235,VALID,24.1726,VALID,89,VALID,0.988281,
2008-06-27, 08:08:04,VALID,1006.98,VALID,0,VALID,92.2255,VALID,92.5179,VALID,24.1744,VALID,81,VALID,0.594922,
2008-06-27, 08:09:04,VALID,1007,VALID,0,VALID,92.3476,VALID,91.7134,VALID,24.1726,VALID,86,VALID,1.1168,
2008-06-27, 08:10:04,VALID,1006.98,VALID,0,VALID,92.607,VALID,90.9089,VALID,24.1939,VALID,108,VALID,0.696094,
2008-06-27, 08:11:04,VALID,1006.99,VALID,0,VALID,92.6909,VALID,90.6072,VALID,24.192,VALID,94,VALID,0.822266,
2008-06-27, 08:12:04,VALID,1006.98,VALID,0,VALID,92.6756,VALID,89.9033,VALID,24.192,VALID,116,VALID,1.00859,
2008-06-27, 08:13:04,VALID,1006.98,VALID,0,VALID,92.5765,VALID,89.8027,VALID,24.1726,VALID,107,VALID,1.11914,
2008-06-27, 08:14:04,VALID,1007.01,VALID,0,VALID,92.3171,VALID,90.1044,VALID,24.1531,VALID,100,VALID,1.23984,
2008-06-27, 08:15:04,VALID,1007.03,VALID,0,VALID,92.3552,VALID,91.4117,VALID,24.1726,VALID,107,VALID,1.17109,
2008-06-27, 08:16:04,VALID,1007.05,VALID,0,VALID,92.4468,VALID,93.9258,VALID,24.1531,VALID,121,VALID,1.24531,
2008-06-27, 08:17:04,VALID,1007.09,VALID,0,VALID,92.1111,VALID,97.7472,VALID,24.192,VALID,119,VALID,1.6457,
2008-06-27, 08:18:04,VALID,1007.11,VALID,0,VALID,92.6451,VALID,102.675,VALID,24.192,VALID,119,VALID,1.03437,
2008-06-27, 08:19:04,VALID,1007.11,VALID,0,VALID,92.4086,VALID,111.323,VALID,24.2115,VALID,114,VALID,1.28125,
2008-06-27, 08:20:04,VALID,1007.12,VALID,0,VALID,92.9426,VALID,120.273,VALID,24.2504,VALID,105,VALID,0.911328,
2008-06-27, 08:21:04,VALID,1007.11,VALID,0,VALID,91.8441,VALID,133.447,VALID,24.1726,VALID,102,VALID,1.61406,
2008-06-27, 08:22:04,VALID,1007.08,VALID,0,VALID,91.9738,VALID,141.794,VALID,24.1531,VALID,116,VALID,0.959766,
2008-06-27, 08:23:04,VALID,1007.03,VALID,0,VALID,91.8822,VALID,152.655,VALID,24.1744,VALID,100,VALID,0.614062,
2008-06-27, 08:24:04,VALID,1007.02,VALID,0.5,VALID,91.7907,VALID,164.722,VALID,24.1336,VALID,88,VALID,0.925,
2008-06-27, 08:25:04,VALID,1006.97,VALID,0,VALID,92.2561,VALID,154.062,VALID,24.1531,VALID,81,VALID,0.377344,
2008-06-27, 08:26:04,VALID,1006.97,VALID,0,VALID,91.8441,VALID,147.626,VALID,24.1744,VALID,78,VALID,0.878125,
2008-06-27, 08:27:04,VALID,1007,VALID,0,VALID,92.0653,VALID,142.9,VALID,24.1744,VALID,71,VALID,0.304688,
2008-06-27, 08:28:04,VALID,1007.05,VALID,0,VALID,91.7983,VALID,143.202,VALID,24.1355,VALID,87,VALID,0.736719,
2008-06-27, 08:29:04,VALID,1007.06,VALID,0,VALID,91.9662,VALID,145.012,VALID,24.1744,VALID,69,VALID,0.947656,
2008-06-27, 08:30:04,VALID,1007.09,VALID,0,VALID,91.7602,VALID,145.716,VALID,24.1336,VALID,112,VALID,1.01484,
2008-06-27, 08:31:04,VALID,1007.09,VALID,0,VALID,91.9128,VALID,148.733,VALID,24.1531,VALID,82,VALID,1,
2008-06-27, 08:32:04,VALID,1007.09,VALID,0,VALID,92.1569,VALID,148.431,VALID,24.1726,VALID,89,VALID,1.02227,
2008-06-27, 08:33:04,VALID,1007.07,VALID,0,VALID,92.2179,VALID,150.844,VALID,24.192,VALID,117,VALID,0.978516,
2008-06-27, 08:34:04,VALID,1007.05,VALID,0,VALID,91.7525,VALID,153.459,VALID,24.1939,VALID,87,VALID,1.17148,
2008-06-27, 08:35:04,VALID,1007.07,VALID,0,VALID,91.9204,VALID,157.381,VALID,24.192,VALID,78,VALID,1.14961,
2008-06-27, 08:36:04,VALID,1007.05,VALID,0,VALID,92.0882,VALID,162.711,VALID,24.2115,VALID,90,VALID,0.857031,
2008-06-27, 08:37:04,VALID,1007.1,VALID,0,VALID,92.3247,VALID,166.029,VALID,24.231,VALID,91,VALID,0.481641,
2008-06-27, 08:38:04,VALID,1007.1,VALID,0,VALID,92.7748,VALID,168.946,VALID,24.3302,VALID,91,VALID,0.726953,
2008-06-27, 08:39:04,VALID,1007.09,VALID,0,VALID,92.6299,VALID,167.84,VALID,24.3283,VALID,99,VALID,1.02695,
2008-06-27, 08:40:04,VALID,1007.1,VALID,0,VALID,92.9045,VALID,169.65,VALID,24.3478,VALID,103,VALID,0.400391,
2008-06-27, 08:41:04,VALID,1007.11,VALID,0,VALID,92.8511,VALID,172.868,VALID,24.408,VALID,98,VALID,0.644141,
2008-06-27, 08:42:04,VALID,1007.16,VALID,0,VALID,92.7824,VALID,175.181,VALID,24.4275,VALID,97,VALID,0.450781,
2008-06-27, 08:43:04,VALID,1007.15,VALID,0,VALID,92.9884,VALID,174.678,VALID,24.4665,VALID,93,VALID,0.45625,
2008-06-27, 08:44:04,VALID,1007.17,VALID,0,VALID,93.2859,VALID,174.376,VALID,24.5249,VALID,51,VALID,0.332812,
2008-06-27, 08:45:04,VALID,1007.2,VALID,0,VALID,93.1181,VALID,175.382,VALID,24.5443,VALID,92,VALID,0.870703,
2008-06-27, 08:46:04,VALID,1007.21,VALID,0,VALID,92.6985,VALID,177.292,VALID,24.5443,VALID,83,VALID,0.932031,
2008-06-27, 08:47:04,VALID,1007.25,VALID,0,VALID,92.5078,VALID,179.807,VALID,24.5035,VALID,56,VALID,0.686328,
2008-06-27, 08:48:04,VALID,1007.26,VALID,0.5,VALID,92.668,VALID,182.622,VALID,24.5443,VALID,97,VALID,0.85625,
2008-06-27, 08:49:04,VALID,1007.28,VALID,0,VALID,92.6833,VALID,185.237,VALID,24.562,VALID,81,VALID,0.598437,
2008-06-27, 08:50:04,VALID,1007.29,VALID,0,VALID,92.607,VALID,188.556,VALID,24.6028,VALID,83,VALID,0.784375,
2008-06-27, 08:51:04,VALID,1007.32,VALID,0,VALID,92.4239,VALID,197.305,VALID,24.6028,VALID,97,VALID,0.996484,
2008-06-27, 08:52:04,VALID,1007.34,VALID,0,VALID,92.4697,VALID,203.841,VALID,24.6222,VALID,83,VALID,1.1625,
2008-06-27, 08:53:04,VALID,1007.34,VALID,0,VALID,92.6756,VALID,216.713,VALID,24.6204,VALID,89,VALID,0.771094,
2008-06-27, 08:54:04,VALID,1007.38,VALID,0,VALID,92.7824,VALID,227.172,VALID,24.6983,VALID,78,VALID,0.489453,
2008-06-27, 08:55:04,VALID,1007.35,VALID,0,VALID,92.5993,VALID,226.367,VALID,24.7372,VALID,94,VALID,0.801953,
2008-06-27, 08:56:04,VALID,1007.38,VALID,0,VALID,92.1492,VALID,214.501,VALID,24.7372,VALID,96,VALID,1.08398,
2008-06-27, 08:57:04,VALID,1007.4,VALID,0,VALID,92.6146,VALID,204.646,VALID,24.7956,VALID,62,VALID,0.492969,
2008-06-27, 08:58:04,VALID,1007.4,VALID,0,VALID,92.1416,VALID,199.617,VALID,24.8151,VALID,72,VALID,1.03906,
2008-06-27, 08:59:04,VALID,1007.4,VALID,0,VALID,92.2866,VALID,196.5,VALID,24.8346,VALID,50,VALID,0.396484,
2008-06-27, 09:00:04,VALID,1007.41,VALID,0,VALID,92.0424,VALID,192.176,VALID,24.8735,VALID,65,VALID,1.05938,
2008-06-27, 09:01:04,VALID,1007.4,VALID,0,VALID,92.0958,VALID,191.17,VALID,24.854,VALID,68,VALID,0.661719,
2008-06-27, 09:02:04,VALID,1007.41,VALID,0,VALID,92.0806,VALID,194.891,VALID,24.893,VALID,95,VALID,0.607422,
2008-06-27, 09:03:04,VALID,1007.38,VALID,0,VALID,92.3247,VALID,200.824,VALID,24.9319,VALID,74,VALID,0.391016,
2008-06-27, 09:04:04,VALID,1007.38,VALID,0,VALID,92.4468,VALID,206.556,VALID,25.0098,VALID,15,VALID,0.548437,
2008-06-27, 09:05:04,VALID,1007.38,VALID,0,VALID,92.134,VALID,208.065,VALID,25.0488,VALID,57,VALID,0.487109,
2008-06-27, 09:06:04,VALID,1007.38,VALID,0,VALID,91.6763,VALID,207.562,VALID,25.0293,VALID,77,VALID,0.759375,
2008-06-27, 09:07:04,VALID,1007.34,VALID,0,VALID,91.9128,VALID,206.456,VALID,25.0682,VALID,42,VALID,0.348437,
2008-06-27, 09:08:04,VALID,1007.38,VALID,0,VALID,91.6305,VALID,205.249,VALID,25.1072,VALID,46,VALID,0.539453,
2008-06-27, 09:09:04,VALID,1007.41,VALID,0,VALID,91.3406,VALID,204.143,VALID,25.1267,VALID,81,VALID,0.838281,
2008-06-27, 09:10:04,VALID,1007.4,VALID,0,VALID,91.5313,VALID,203.539,VALID,25.1851,VALID,76,VALID,0.598437,
2008-06-27, 09:11:04,VALID,1007.41,VALID,0,VALID,90.982,VALID,203.539,VALID,25.187,VALID,82,VALID,1.0582,
2008-06-27, 09:12:04,VALID,1007.39,VALID,0,VALID,91.5008,VALID,203.841,VALID,25.2046,VALID,69,VALID,0.661719,
2008-06-27, 09:13:04,VALID,1007.38,VALID,0,VALID,91.3482,VALID,204.545,VALID,25.2454,VALID,62,VALID,0.476953,
2008-06-27, 09:14:04,VALID,1007.39,VALID,0,VALID,91.2872,VALID,205.249,VALID,25.2825,VALID,32,VALID,0.684766,
2008-06-27, 09:15:04,VALID,1007.39,VALID,0,VALID,91.3406,VALID,206.255,VALID,25.3214,VALID,20,VALID,0.782422,
2008-06-27, 09:16:04,VALID,1007.41,VALID,0,VALID,91.0812,VALID,207.059,VALID,25.3409,VALID,35,VALID,0.58125,
2008-06-27, 09:17:04,VALID,1007.44,VALID,0,VALID,90.8676,VALID,207.662,VALID,25.4207,VALID,70,VALID,0.655859,
2008-06-27, 09:18:04,VALID,1007.45,VALID,0,VALID,90.2649,VALID,208.065,VALID,25.3604,VALID,81,VALID,0.755078,
2008-06-27, 09:19:04,VALID,1007.46,VALID,0,VALID,90.2573,VALID,208.266,VALID,25.3993,VALID,56,VALID,0.567969,
2008-06-27, 09:20:04,VALID,1007.48,VALID,0,VALID,90.387,VALID,208.165,VALID,25.4207,VALID,25,VALID,0.900391,
2008-06-27, 09:21:04,VALID,1007.49,VALID,0,VALID,90.3641,VALID,208.165,VALID,25.4383,VALID,12,VALID,0.885938,
2008-06-27, 09:22:04,VALID,1007.47,VALID,0,VALID,90.9591,VALID,207.763,VALID,25.5376,VALID,41,VALID,0.459766,
2008-06-27, 09:23:04,VALID,1007.48,VALID,0,VALID,90.4633,VALID,207.361,VALID,25.5162,VALID,112,VALID,0.748438,
2008-06-27, 09:24:04,VALID,1007.45,VALID,0,VALID,90.7532,VALID,207.26,VALID,25.5746,VALID,24,VALID,0.489062,
2008-06-27, 09:25:04,VALID,1007.42,VALID,0,VALID,90.4099,VALID,207.26,VALID,25.5746,VALID,84,VALID,0.830078,
2008-06-27, 09:26:04,VALID,1007.46,VALID,0,VALID,90.3565,VALID,207.26,VALID,25.5941,VALID,49,VALID,0.405078,
2008-06-27, 09:27:04,VALID,1007.45,VALID,0,VALID,90.8066,VALID,207.26,VALID,25.6525,VALID,49,VALID,0.130859,
2008-06-27, 09:28:04,VALID,1007.45,VALID,0,VALID,91.0354,VALID,207.16,VALID,25.7109,VALID,79,VALID,0.639453,
2008-06-27, 09:29:04,VALID,1007.46,VALID,0,VALID,90.2497,VALID,207.059,VALID,25.7519,VALID,94,VALID,0.716406,
2008-06-27, 09:30:04,VALID,1007.47,VALID,0,VALID,90.2573,VALID,206.757,VALID,25.7109,VALID,100,VALID,0.701953,
2008-06-27, 09:31:04,VALID,1007.45,VALID,0,VALID,90.0437,VALID,206.657,VALID,25.7304,VALID,86,VALID,0.439063,
2008-06-27, 09:32:04,VALID,1007.45,VALID,0,VALID,90.7379,VALID,206.757,VALID,25.7889,VALID,74,VALID,0.368359,
2008-06-27, 09:33:04,VALID,1007.46,VALID,0,VALID,90.4327,VALID,207.16,VALID,25.8278,VALID,95,VALID,0.721875,
2008-06-27, 09:34:04,VALID,1007.46,VALID,0,VALID,89.6012,VALID,207.864,VALID,25.8103,VALID,113,VALID,0.834766,
2008-06-27, 09:35:04,VALID,1007.47,VALID,0,VALID,89.0061,VALID,208.668,VALID,25.7889,VALID,147,VALID,1.06875,
2008-06-27, 09:36:04,VALID,1007.45,VALID,0,VALID,88.5789,VALID,209.774,VALID,25.7908,VALID,138,VALID,1.29766,
2008-06-27, 09:37:04,VALID,1007.47,VALID,0,VALID,89.0901,VALID,211.182,VALID,25.7519,VALID,124,VALID,1.1793,
2008-06-27, 09:38:04,VALID,1007.5,VALID,0,VALID,88.9299,VALID,212.188,VALID,25.7304,VALID,115,VALID,1.33047,
2008-06-27, 09:39:04,VALID,1007.5,VALID,0,VALID,88.6628,VALID,214.4,VALID,25.6915,VALID,115,VALID,1.36563,
2008-06-27, 09:40:04,VALID,1007.49,VALID,0,VALID,88.3272,VALID,216.411,VALID,25.672,VALID,119,VALID,1.1082,
2008-06-27, 09:41:04,VALID,1007.48,VALID,0,VALID,88.5408,VALID,218.121,VALID,25.6545,VALID,117,VALID,1.17188,
2008-06-27, 09:42:04,VALID,1007.48,VALID,0,VALID,89.7996,VALID,221.238,VALID,25.6915,VALID,129,VALID,0.618359,
2008-06-27, 09:43:04,VALID,1007.47,VALID,0,VALID,89.7385,VALID,224.859,VALID,25.7324,VALID,142,VALID,0.986328,
2008-06-27, 09:44:04,VALID,1007.46,VALID,0,VALID,90.5014,VALID,229.485,VALID,25.7908,VALID,140,VALID,0.432422,
2008-06-27, 09:45:04,VALID,1007.44,VALID,0,VALID,89.2274,VALID,234.513,VALID,25.7694,VALID,126,VALID,0.950781,
2008-06-27, 09:46:04,VALID,1007.41,VALID,0,VALID,89.235,VALID,240.144,VALID,25.7694,VALID,154,VALID,1.15859,
2008-06-27, 09:47:04,VALID,1007.39,VALID,0,VALID,89.6317,VALID,245.876,VALID,25.8103,VALID,164,VALID,1.32109,
2008-06-27, 09:48:04,VALID,1007.42,VALID,0,VALID,90.0894,VALID,252.514,VALID,25.8278,VALID,133,VALID,0.955078,
2008-06-27, 09:49:04,VALID,1007.41,VALID,0,VALID,88.9299,VALID,262.771,VALID,25.8687,VALID,118,VALID,1.36836,
2008-06-27, 09:50:04,VALID,1007.41,VALID,0,VALID,88.6247,VALID,273.431,VALID,25.8298,VALID,121,VALID,1.53867,
2008-06-27, 09:51:04,VALID,1007.4,VALID,0,VALID,89.7461,VALID,284.694,VALID,25.8278,VALID,133,VALID,1.18164,
2008-06-27, 09:52:04,VALID,1007.39,VALID,0,VALID,90.715,VALID,297.566,VALID,25.8863,VALID,117,VALID,1.00703,
2008-06-27, 09:53:04,VALID,1007.38,VALID,0,VALID,88.6476,VALID,309.834,VALID,25.8278,VALID,115,VALID,1.39258,
2008-06-27, 09:54:04,VALID,1007.38,VALID,0,VALID,88.9375,VALID,320.997,VALID,25.8278,VALID,107,VALID,0.601172,
2008-06-27, 09:55:04,VALID,1007.36,VALID,0,VALID,88.968,VALID,332.159,VALID,25.8863,VALID,117,VALID,0.627734,
2008-06-27, 09:56:04,VALID,1007.35,VALID,0,VALID,90.2878,VALID,342.316,VALID,25.9856,VALID,116,VALID,0.935156,
2008-06-27, 09:57:04,VALID,1007.34,VALID,0,VALID,87.961,VALID,352.473,VALID,25.9467,VALID,121,VALID,1.26914,
2008-06-27, 09:58:04,VALID,1007.36,VALID,0,VALID,87.549,VALID,368.161,VALID,25.9661,VALID,134,VALID,0.898828,
2008-06-27, 09:59:04,VALID,1007.35,VALID,0,VALID,88.228,VALID,385.659,VALID,26.0421,VALID,134,VALID,0.780469,